#datetime,building,power
2023-05-21T00:00:00,mfh,38.13
2023-05-21T00:01:00,mfh,38.31
2023-05-21T00:02:00,mfh,38.02
2023-05-21T00:03:00,mfh,38.02
2023-05-21T00:04:00,mfh,38.23
2023-05-21T00:05:00,mfh,37.42
2023-05-21T00:06:00,mfh,37.43
2023-05-21T00:07:00,mfh,37.56
2023-05-21T00:08:00,mfh,38.24
2023-05-21T00:09:00,mfh,38.26
2023-05-21T00:10:00,mfh,38.40
2023-05-21T00:11:00,mfh,38.42
2023-05-21T00:12:00,mfh,38.45
2023-05-21T00:13:00,mfh,37.62
2023-05-21T00:14:00,mfh,37.45
2023-05-21T00:15:00,mfh,37.45
2023-05-21T00:16:00,mfh,37.52
2023-05-21T00:17:00,mfh,38.11
2023-05-21T00:18:00,mfh,38.10
2023-05-21T00:19:00,mfh,38.09
2023-05-21T00:20:00,mfh,38.09
2023-05-21T00:21:00,mfh,38.21
2023-05-21T00:22:00,mfh,37.40
2023-05-21T00:23:00,mfh,37.41
2023-05-21T00:24:00,mfh,37.58
2023-05-21T00:25:00,mfh,38.18
2023-05-21T00:26:00,mfh,38.19
2023-05-21T00:27:00,mfh,38.03
2023-05-21T00:28:00,mfh,38.06
2023-05-21T00:29:00,mfh,38.05
2023-05-21T00:30:00,mfh,38.07
2023-05-21T00:31:00,mfh,37.32
2023-05-21T00:32:00,mfh,37.32
2023-05-21T00:33:00,mfh,37.33
2023-05-21T00:34:00,mfh,37.24
2023-05-21T00:35:00,mfh,37.94
2023-05-21T00:36:00,mfh,38.11
2023-05-21T00:37:00,mfh,37.68
2023-05-21T00:38:00,mfh,37.59
2023-05-21T00:39:00,mfh,36.89
2023-05-21T00:40:00,mfh,36.75
2023-05-21T00:41:00,mfh,36.68
2023-05-21T00:42:00,mfh,36.67
2023-05-21T00:43:00,mfh,36.76
2023-05-21T00:44:00,mfh,37.31
2023-05-21T00:45:00,mfh,37.23
2023-05-21T00:46:00,mfh,38.11
2023-05-21T00:47:00,mfh,37.28
2023-05-21T00:48:00,mfh,36.70
2023-05-21T00:49:00,mfh,36.80
2023-05-21T00:50:00,mfh,37.35
2023-05-21T00:51:00,mfh,36.73
2023-05-21T00:52:00,mfh,37.35
2023-05-21T00:53:00,mfh,37.42
2023-05-21T00:54:00,mfh,37.51
2023-05-21T00:55:00,mfh,37.54
2023-05-21T00:56:00,mfh,37.43
2023-05-21T00:57:00,mfh,36.91
2023-05-21T00:58:00,mfh,36.82
2023-05-21T00:59:00,mfh,36.74
2023-05-21T01:00:00,mfh,36.94
2023-05-21T01:01:00,mfh,37.43
2023-05-21T01:02:00,mfh,37.40
2023-05-21T01:03:00,mfh,37.55
2023-05-21T01:04:00,mfh,38.30
2023-05-21T01:05:00,mfh,37.66
2023-05-21T01:06:00,mfh,36.72
2023-05-21T01:07:00,mfh,38.29
2023-05-21T01:08:00,mfh,36.77
2023-05-21T01:09:00,mfh,36.69
2023-05-21T01:10:00,mfh,37.89
2023-05-21T01:11:00,mfh,37.38
2023-05-21T01:12:00,mfh,37.50
2023-05-21T01:13:00,mfh,37.43
2023-05-21T01:14:00,mfh,37.28
2023-05-21T01:15:00,mfh,36.62
2023-05-21T01:16:00,mfh,37.04
2023-05-21T01:17:00,mfh,36.53
2023-05-21T01:18:00,mfh,36.42
2023-05-21T01:19:00,mfh,37.12
2023-05-21T01:20:00,mfh,37.17
2023-05-21T01:21:00,mfh,37.09
2023-05-21T01:22:00,mfh,37.20
2023-05-21T01:23:00,mfh,37.34
2023-05-21T01:24:00,mfh,36.48
2023-05-21T01:25:00,mfh,36.43
2023-05-21T01:26:00,mfh,36.51
2023-05-21T01:27:00,mfh,36.41
2023-05-21T01:28:00,mfh,37.06
2023-05-21T01:29:00,mfh,37.01
2023-05-21T01:30:00,mfh,37.02
2023-05-21T01:31:00,mfh,37.01
2023-05-21T01:32:00,mfh,37.04
2023-05-21T01:33:00,mfh,36.35
2023-05-21T01:34:00,mfh,36.45
2023-05-21T01:35:00,mfh,36.86
2023-05-21T01:36:00,mfh,36.54
2023-05-21T01:37:00,mfh,38.12
2023-05-21T01:38:00,mfh,37.30
2023-05-21T01:39:00,mfh,37.19
2023-05-21T01:40:00,mfh,37.17
2023-05-21T01:41:00,mfh,37.23
2023-05-21T01:42:00,mfh,36.52
2023-05-21T01:43:00,mfh,36.52
2023-05-21T01:44:00,mfh,36.54
2023-05-21T01:45:00,mfh,37.12
2023-05-21T01:46:00,mfh,37.23
2023-05-21T01:47:00,mfh,37.19
2023-05-21T01:48:00,mfh,37.44
2023-05-21T01:49:00,mfh,37.36
2023-05-21T01:50:00,mfh,37.32
2023-05-21T01:51:00,mfh,36.42
2023-05-21T01:52:00,mfh,36.42
2023-05-21T01:53:00,mfh,36.42
2023-05-21T01:54:00,mfh,36.42
2023-05-21T01:55:00,mfh,37.09
2023-05-21T01:56:00,mfh,37.23
2023-05-21T01:57:00,mfh,37.25
2023-05-21T01:58:00,mfh,37.40
2023-05-21T01:59:00,mfh,36.71
2023-05-21T02:00:00,mfh,36.91
2023-05-21T02:01:00,mfh,36.94
2023-05-21T02:02:00,mfh,36.84
2023-05-21T02:03:00,mfh,37.43
2023-05-21T02:04:00,mfh,37.26
2023-05-21T02:05:00,mfh,37.26
2023-05-21T02:06:00,mfh,37.16
2023-05-21T02:07:00,mfh,37.17
2023-05-21T02:08:00,mfh,37.13
2023-05-21T02:09:00,mfh,36.54
2023-05-21T02:10:00,mfh,36.61
2023-05-21T02:11:00,mfh,36.62
2023-05-21T02:12:00,mfh,37.22
2023-05-21T02:13:00,mfh,38.83
2023-05-21T02:14:00,mfh,39.09
2023-05-21T02:15:00,mfh,39.02
2023-05-21T02:16:00,mfh,38.95
2023-05-21T02:17:00,mfh,38.25
2023-05-21T02:18:00,mfh,38.08
2023-05-21T02:19:00,mfh,36.40
2023-05-21T02:20:00,mfh,36.47
2023-05-21T02:21:00,mfh,37.33
2023-05-21T02:22:00,mfh,37.10
2023-05-21T02:23:00,mfh,37.04
2023-05-21T02:24:00,mfh,37.06
2023-05-21T02:25:00,mfh,37.90
2023-05-21T02:26:00,mfh,36.42
2023-05-21T02:27:00,mfh,36.38
2023-05-21T02:28:00,mfh,36.53
2023-05-21T02:29:00,mfh,36.51
2023-05-21T02:30:00,mfh,37.15
2023-05-21T02:31:00,mfh,38.60
2023-05-21T02:32:00,mfh,37.95
2023-05-21T02:33:00,mfh,37.98
2023-05-21T02:34:00,mfh,37.94
2023-05-21T02:35:00,mfh,37.25
2023-05-21T02:36:00,mfh,37.30
2023-05-21T02:37:00,mfh,37.44
2023-05-21T02:38:00,mfh,37.36
2023-05-21T02:39:00,mfh,37.89
2023-05-21T02:40:00,mfh,36.50
2023-05-21T02:41:00,mfh,36.59
2023-05-21T02:42:00,mfh,36.86
2023-05-21T02:43:00,mfh,37.00
2023-05-21T02:44:00,mfh,37.61
2023-05-21T02:45:00,mfh,37.41
2023-05-21T02:46:00,mfh,37.41
2023-05-21T02:47:00,mfh,38.10
2023-05-21T02:48:00,mfh,37.28
2023-05-21T02:49:00,mfh,36.70
2023-05-21T02:50:00,mfh,36.61
2023-05-21T02:51:00,mfh,36.61
2023-05-21T02:52:00,mfh,36.52
2023-05-21T02:53:00,mfh,37.14
2023-05-21T02:54:00,mfh,37.16
2023-05-21T02:55:00,mfh,37.22
2023-05-21T02:56:00,mfh,37.11
2023-05-21T02:57:00,mfh,37.67
2023-05-21T02:58:00,mfh,36.36
2023-05-21T02:59:00,mfh,36.28
2023-05-21T03:00:00,mfh,36.29
2023-05-21T03:01:00,mfh,36.53
2023-05-21T03:02:00,mfh,37.22
2023-05-21T03:03:00,mfh,37.17
2023-05-21T03:04:00,mfh,37.26
2023-05-21T03:05:00,mfh,37.26
2023-05-21T03:06:00,mfh,37.25
2023-05-21T03:07:00,mfh,36.50
2023-05-21T03:08:00,mfh,36.49
2023-05-21T03:09:00,mfh,36.98
2023-05-21T03:10:00,mfh,36.58
2023-05-21T03:11:00,mfh,37.13
2023-05-21T03:12:00,mfh,37.73
2023-05-21T03:13:00,mfh,37.36
2023-05-21T03:14:00,mfh,37.82
2023-05-21T03:15:00,mfh,37.58
2023-05-21T03:16:00,mfh,36.77
2023-05-21T03:17:00,mfh,36.70
2023-05-21T03:18:00,mfh,36.69
2023-05-21T03:19:00,mfh,37.64
2023-05-21T03:20:00,mfh,37.23
2023-05-21T03:21:00,mfh,37.16
2023-05-21T03:22:00,mfh,37.18
2023-05-21T03:23:00,mfh,37.29
2023-05-21T03:24:00,mfh,37.30
2023-05-21T03:25:00,mfh,36.67
2023-05-21T03:26:00,mfh,36.66
2023-05-21T03:27:00,mfh,36.61
2023-05-21T03:28:00,mfh,37.14
2023-05-21T03:29:00,mfh,37.21
2023-05-21T03:30:00,mfh,37.10
2023-05-21T03:31:00,mfh,37.14
2023-05-21T03:32:00,mfh,37.84
2023-05-21T03:33:00,mfh,36.46
2023-05-21T03:34:00,mfh,36.39
2023-05-21T03:35:00,mfh,36.56
2023-05-21T03:36:00,mfh,37.37
2023-05-21T03:37:00,mfh,37.27
2023-05-21T03:38:00,mfh,37.39
2023-05-21T03:39:00,mfh,37.27
2023-05-21T03:40:00,mfh,37.14
2023-05-21T03:41:00,mfh,37.15
2023-05-21T03:42:00,mfh,36.46
2023-05-21T03:43:00,mfh,36.46
2023-05-21T03:44:00,mfh,36.64
2023-05-21T03:45:00,mfh,36.62
2023-05-21T03:46:00,mfh,37.25
2023-05-21T03:47:00,mfh,37.78
2023-05-21T03:48:00,mfh,37.31
2023-05-21T03:49:00,mfh,37.31
2023-05-21T03:50:00,mfh,37.45
2023-05-21T03:51:00,mfh,37.90
2023-05-21T03:52:00,mfh,36.97
2023-05-21T03:53:00,mfh,37.01
2023-05-21T03:54:00,mfh,37.38
2023-05-21T03:55:00,mfh,37.40
2023-05-21T03:56:00,mfh,37.46
2023-05-21T03:57:00,mfh,37.49
2023-05-21T03:58:00,mfh,37.51
2023-05-21T03:59:00,mfh,37.50
2023-05-21T04:00:00,mfh,36.82
2023-05-21T04:01:00,mfh,36.74
2023-05-21T04:02:00,mfh,36.84
2023-05-21T04:03:00,mfh,37.45
2023-05-21T04:04:00,mfh,37.46
2023-05-21T04:05:00,mfh,37.42
2023-05-21T04:06:00,mfh,37.59
2023-05-21T04:07:00,mfh,37.60
2023-05-21T04:08:00,mfh,37.54
2023-05-21T04:09:00,mfh,37.03
2023-05-21T04:10:00,mfh,37.00
2023-05-21T04:11:00,mfh,37.01
2023-05-21T04:12:00,mfh,37.77
2023-05-21T04:13:00,mfh,37.50
2023-05-21T04:14:00,mfh,37.43
2023-05-21T04:15:00,mfh,37.70
2023-05-21T04:16:00,mfh,37.66
2023-05-21T04:17:00,mfh,36.91
2023-05-21T04:18:00,mfh,37.42
2023-05-21T04:19:00,mfh,37.07
2023-05-21T04:20:00,mfh,37.05
2023-05-21T04:21:00,mfh,37.57
2023-05-21T04:22:00,mfh,37.48
2023-05-21T04:23:00,mfh,37.44
2023-05-21T04:24:00,mfh,37.40
2023-05-21T04:25:00,mfh,38.31
2023-05-21T04:26:00,mfh,36.77
2023-05-21T04:27:00,mfh,36.80
2023-05-21T04:28:00,mfh,36.73
2023-05-21T04:29:00,mfh,36.64
2023-05-21T04:30:00,mfh,37.34
2023-05-21T04:31:00,mfh,37.45
2023-05-21T04:32:00,mfh,37.40
2023-05-21T04:33:00,mfh,37.26
2023-05-21T04:34:00,mfh,37.28
2023-05-21T04:35:00,mfh,36.59
2023-05-21T04:36:00,mfh,36.52
2023-05-21T04:37:00,mfh,36.72
2023-05-21T04:38:00,mfh,36.52
2023-05-21T04:39:00,mfh,38.84
2023-05-21T04:40:00,mfh,38.97
2023-05-21T04:41:00,mfh,39.07
2023-05-21T04:42:00,mfh,38.99
2023-05-21T04:43:00,mfh,39.54
2023-05-21T04:44:00,mfh,38.33
2023-05-21T04:45:00,mfh,36.67
2023-05-21T04:46:00,mfh,36.81
2023-05-21T04:47:00,mfh,37.54
2023-05-21T04:48:00,mfh,37.54
2023-05-21T04:49:00,mfh,37.50
2023-05-21T04:50:00,mfh,37.79
2023-05-21T04:51:00,mfh,37.51
2023-05-21T04:52:00,mfh,36.87
2023-05-21T04:53:00,mfh,37.23
2023-05-21T04:54:00,mfh,37.15
2023-05-21T04:55:00,mfh,36.56
2023-05-21T04:56:00,mfh,37.19
2023-05-21T04:57:00,mfh,37.22
2023-05-21T04:58:00,mfh,38.16
2023-05-21T04:59:00,mfh,37.38
2023-05-21T05:00:00,mfh,37.41
2023-05-21T05:01:00,mfh,56.40
2023-05-21T05:02:00,mfh,56.95
2023-05-21T05:03:00,mfh,56.89
2023-05-21T05:04:00,mfh,57.05
2023-05-21T05:05:00,mfh,56.92
2023-05-21T05:06:00,mfh,57.34
2023-05-21T05:07:00,mfh,57.33
2023-05-21T05:08:00,mfh,57.52
2023-05-21T05:09:00,mfh,57.62
2023-05-21T05:10:00,mfh,57.62
2023-05-21T05:11:00,mfh,57.03
2023-05-21T05:12:00,mfh,56.94
2023-05-21T05:13:00,mfh,56.34
2023-05-21T05:14:00,mfh,56.48
2023-05-21T05:15:00,mfh,56.96
2023-05-21T05:16:00,mfh,57.34
2023-05-21T05:17:00,mfh,57.27
2023-05-21T05:18:00,mfh,57.28
2023-05-21T05:19:00,mfh,57.16
2023-05-21T05:20:00,mfh,56.56
2023-05-21T05:21:00,mfh,56.72
2023-05-21T05:22:00,mfh,57.44
2023-05-21T05:23:00,mfh,58.11
2023-05-21T05:24:00,mfh,58.60
2023-05-21T05:25:00,mfh,58.65
2023-05-21T05:26:00,mfh,58.93
2023-05-21T05:27:00,mfh,58.70
2023-05-21T05:28:00,mfh,58.11
2023-05-21T05:29:00,mfh,57.57
2023-05-21T05:30:00,mfh,57.51
2023-05-21T05:31:00,mfh,57.90
2023-05-21T05:32:00,mfh,57.74
2023-05-21T05:33:00,mfh,57.82
2023-05-21T05:34:00,mfh,57.84
2023-05-21T05:35:00,mfh,58.04
2023-05-21T05:36:00,mfh,57.40
2023-05-21T05:37:00,mfh,57.35
2023-05-21T05:38:00,mfh,57.44
2023-05-21T05:39:00,mfh,57.29
2023-05-21T05:40:00,mfh,58.44
2023-05-21T05:41:00,mfh,58.79
2023-05-21T05:42:00,mfh,56.80
2023-05-21T05:43:00,mfh,56.91
2023-05-21T05:44:00,mfh,57.49
2023-05-21T05:45:00,mfh,57.64
2023-05-21T05:46:00,mfh,57.51
2023-05-21T05:47:00,mfh,58.20
2023-05-21T05:48:00,mfh,57.38
2023-05-21T05:49:00,mfh,57.23
2023-05-21T05:50:00,mfh,56.32
2023-05-21T05:51:00,mfh,56.39
2023-05-21T05:52:00,mfh,56.36
2023-05-21T05:53:00,mfh,56.38
2023-05-21T05:54:00,mfh,57.17
2023-05-21T05:55:00,mfh,57.36
2023-05-21T05:56:00,mfh,56.88
2023-05-21T05:57:00,mfh,58.21
2023-05-21T05:58:00,mfh,56.80
2023-05-21T05:59:00,mfh,56.14
2023-05-21T06:00:00,mfh,56.15
2023-05-21T06:01:00,mfh,56.08
2023-05-21T06:02:00,mfh,56.17
2023-05-21T06:03:00,mfh,56.95
2023-05-21T06:04:00,mfh,56.98
2023-05-21T06:05:00,mfh,57.09
2023-05-21T06:06:00,mfh,57.25
2023-05-21T06:07:00,mfh,57.76
2023-05-21T06:08:00,mfh,57.06
2023-05-21T06:09:00,mfh,57.00
2023-05-21T06:10:00,mfh,58.07
2023-05-21T06:11:00,mfh,57.32
2023-05-21T06:12:00,mfh,58.02
2023-05-21T06:13:00,mfh,57.75
2023-05-21T06:14:00,mfh,58.50
2023-05-21T06:15:00,mfh,58.55
2023-05-21T06:16:00,mfh,57.87
2023-05-21T06:17:00,mfh,57.01
2023-05-21T06:18:00,mfh,56.95
2023-05-21T06:19:00,mfh,56.95
2023-05-21T06:20:00,mfh,57.55
2023-05-21T06:21:00,mfh,57.50
2023-05-21T06:22:00,mfh,58.25
2023-05-21T06:23:00,mfh,58.30
2023-05-21T06:24:00,mfh,57.50
2023-05-21T06:25:00,mfh,57.03
2023-05-21T06:26:00,mfh,56.92
2023-05-21T06:27:00,mfh,56.72
2023-05-21T06:28:00,mfh,56.58
2023-05-21T06:29:00,mfh,57.38
2023-05-21T06:30:00,mfh,57.02
2023-05-21T06:31:00,mfh,57.03
2023-05-21T06:32:00,mfh,57.02
2023-05-21T06:33:00,mfh,57.62
2023-05-21T06:34:00,mfh,56.08
2023-05-21T06:35:00,mfh,56.56
2023-05-21T06:36:00,mfh,56.57
2023-05-21T06:37:00,mfh,56.60
2023-05-21T06:38:00,mfh,57.30
2023-05-21T06:39:00,mfh,57.28
2023-05-21T06:40:00,mfh,57.25
2023-05-21T06:41:00,mfh,57.51
2023-05-21T06:42:00,mfh,57.27
2023-05-21T06:43:00,mfh,56.56
2023-05-21T06:44:00,mfh,57.48
2023-05-21T06:45:00,mfh,56.89
2023-05-21T06:46:00,mfh,57.55
2023-05-21T06:47:00,mfh,58.14
2023-05-21T06:48:00,mfh,58.14
2023-05-21T06:49:00,mfh,59.77
2023-05-21T06:50:00,mfh,60.65
2023-05-21T06:51:00,mfh,59.44
2023-05-21T06:52:00,mfh,59.57
2023-05-21T06:53:00,mfh,59.67
2023-05-21T06:54:00,mfh,59.52
2023-05-21T06:55:00,mfh,57.78
2023-05-21T06:56:00,mfh,58.64
2023-05-21T06:57:00,mfh,58.75
2023-05-21T06:58:00,mfh,58.67
2023-05-21T06:59:00,mfh,58.52
2023-05-21T07:00:00,mfh,57.92
2023-05-21T07:01:00,mfh,58.69
2023-05-21T07:02:00,mfh,57.63
2023-05-21T07:03:00,mfh,57.62
2023-05-21T07:04:00,mfh,58.38
2023-05-21T07:05:00,mfh,58.42
2023-05-21T07:06:00,mfh,58.46
2023-05-21T07:07:00,mfh,58.50
2023-05-21T07:08:00,mfh,59.69
2023-05-21T07:09:00,mfh,57.76
2023-05-21T07:10:00,mfh,57.64
2023-05-21T07:11:00,mfh,57.68
2023-05-21T07:12:00,mfh,58.23
2023-05-21T07:13:00,mfh,58.26
2023-05-21T07:14:00,mfh,58.39
2023-05-21T07:15:00,mfh,58.41
2023-05-21T07:16:00,mfh,58.50
2023-05-21T07:17:00,mfh,58.46
2023-05-21T07:18:00,mfh,58.61
2023-05-21T07:19:00,mfh,57.81
2023-05-21T07:20:00,mfh,57.95
2023-05-21T07:21:00,mfh,57.96
2023-05-21T07:22:00,mfh,58.58
2023-05-21T07:23:00,mfh,58.33
2023-05-21T07:24:00,mfh,59.26
2023-05-21T07:25:00,mfh,59.43
2023-05-21T07:26:00,mfh,57.86
2023-05-21T07:27:00,mfh,57.97
2023-05-21T07:28:00,mfh,58.15
2023-05-21T07:29:00,mfh,57.97
2023-05-21T07:30:00,mfh,58.37
2023-05-21T07:31:00,mfh,58.52
2023-05-21T07:32:00,mfh,58.65
2023-05-21T07:33:00,mfh,58.57
2023-05-21T07:34:00,mfh,58.55
2023-05-21T07:35:00,mfh,57.95
2023-05-21T07:36:00,mfh,57.65
2023-05-21T07:37:00,mfh,57.65
2023-05-21T07:38:00,mfh,57.78
2023-05-21T07:39:00,mfh,58.54
2023-05-21T07:40:00,mfh,58.43
2023-05-21T07:41:00,mfh,58.47
2023-05-21T07:42:00,mfh,58.35
2023-05-21T07:43:00,mfh,57.70
2023-05-21T07:44:00,mfh,57.65
2023-05-21T07:45:00,mfh,58.27
2023-05-21T07:46:00,mfh,58.06
2023-05-21T07:47:00,mfh,57.69
2023-05-21T07:48:00,mfh,58.30
2023-05-21T07:49:00,mfh,58.27
2023-05-21T07:50:00,mfh,58.27
2023-05-21T07:51:00,mfh,58.62
2023-05-21T07:52:00,mfh,57.42
2023-05-21T07:53:00,mfh,57.31
2023-05-21T07:54:00,mfh,58.16
2023-05-21T07:55:00,mfh,58.38
2023-05-21T07:56:00,mfh,58.38
2023-05-21T07:57:00,mfh,59.26
2023-05-21T07:58:00,mfh,59.29
2023-05-21T07:59:00,mfh,59.16
2023-05-21T08:00:00,mfh,59.36
2023-05-21T08:01:00,mfh,58.67
2023-05-21T08:02:00,mfh,59.02
2023-05-21T08:03:00,mfh,59.37
2023-05-21T08:04:00,mfh,59.33
2023-05-21T08:05:00,mfh,59.89
2023-05-21T08:06:00,mfh,60.16
2023-05-21T08:07:00,mfh,59.98
2023-05-21T08:08:00,mfh,60.48
2023-05-21T08:09:00,mfh,59.42
2023-05-21T08:10:00,mfh,58.91
2023-05-21T08:11:00,mfh,58.52
2023-05-21T08:12:00,mfh,58.68
2023-05-21T08:13:00,mfh,58.55
2023-05-21T08:14:00,mfh,59.57
2023-05-21T08:15:00,mfh,59.55
2023-05-21T08:16:00,mfh,59.66
2023-05-21T08:17:00,mfh,60.12
2023-05-21T08:18:00,mfh,57.44
2023-05-21T08:19:00,mfh,58.70
2023-05-21T08:20:00,mfh,58.69
2023-05-21T08:21:00,mfh,58.72
2023-05-21T08:22:00,mfh,59.25
2023-05-21T08:23:00,mfh,59.51
2023-05-21T08:24:00,mfh,59.39
2023-05-21T08:25:00,mfh,60.15
2023-05-21T08:26:00,mfh,59.41
2023-05-21T08:27:00,mfh,58.74
2023-05-21T08:28:00,mfh,59.03
2023-05-21T08:29:00,mfh,59.04
2023-05-21T08:30:00,mfh,59.87
2023-05-21T08:31:00,mfh,63.47
2023-05-21T08:32:00,mfh,63.41
2023-05-21T08:33:00,mfh,62.30
2023-05-21T08:34:00,mfh,62.20
2023-05-21T08:35:00,mfh,64.18
2023-05-21T08:36:00,mfh,63.57
2023-05-21T08:37:00,mfh,63.59
2023-05-21T08:38:00,mfh,62.58
2023-05-21T08:39:00,mfh,62.59
2023-05-21T08:40:00,mfh,62.66
2023-05-21T08:41:00,mfh,63.34
2023-05-21T08:42:00,mfh,63.46
2023-05-21T08:43:00,mfh,63.53
2023-05-21T08:44:00,mfh,63.31
2023-05-21T08:45:00,mfh,63.29
2023-05-21T08:46:00,mfh,63.27
2023-05-21T08:47:00,mfh,63.33
2023-05-21T08:48:00,mfh,63.82
2023-05-21T08:49:00,mfh,62.70
2023-05-21T08:50:00,mfh,62.49
2023-05-21T08:51:00,mfh,62.65
2023-05-21T08:52:00,mfh,62.21
2023-05-21T08:53:00,mfh,62.07
2023-05-21T08:54:00,mfh,62.38
2023-05-21T08:55:00,mfh,63.12
2023-05-21T08:56:00,mfh,64.13
2023-05-21T08:57:00,mfh,64.16
2023-05-21T08:58:00,mfh,64.03
2023-05-21T08:59:00,mfh,63.18
2023-05-21T09:00:00,mfh,63.52
2023-05-21T09:01:00,mfh,63.33
2023-05-21T09:02:00,mfh,65.21
2023-05-21T09:03:00,mfh,65.26
2023-05-21T09:04:00,mfh,65.58
2023-05-21T09:05:00,mfh,65.34
2023-05-21T09:06:00,mfh,65.46
2023-05-21T09:07:00,mfh,65.50
2023-05-21T09:08:00,mfh,65.78
2023-05-21T09:09:00,mfh,65.87
2023-05-21T09:10:00,mfh,66.10
2023-05-21T09:11:00,mfh,64.39
2023-05-21T09:12:00,mfh,63.84
2023-05-21T09:13:00,mfh,63.71
2023-05-21T09:14:00,mfh,64.27
2023-05-21T09:15:00,mfh,64.37
2023-05-21T09:16:00,mfh,64.37
2023-05-21T09:17:00,mfh,64.78
2023-05-21T09:18:00,mfh,65.09
2023-05-21T09:19:00,mfh,64.96
2023-05-21T09:20:00,mfh,66.77
2023-05-21T09:21:00,mfh,66.92
2023-05-21T09:22:00,mfh,65.94
2023-05-21T09:23:00,mfh,66.59
2023-05-21T09:24:00,mfh,66.71
2023-05-21T09:25:00,mfh,67.13
2023-05-21T09:26:00,mfh,65.53
2023-05-21T09:27:00,mfh,65.48
2023-05-21T09:28:00,mfh,65.62
2023-05-21T09:29:00,mfh,65.51
2023-05-21T09:30:00,mfh,65.51
2023-05-21T09:31:00,mfh,65.70
2023-05-21T09:32:00,mfh,65.63
2023-05-21T09:33:00,mfh,64.97
2023-05-21T09:34:00,mfh,65.00
2023-05-21T09:35:00,mfh,64.32
2023-05-21T09:36:00,mfh,64.79
2023-05-21T09:37:00,mfh,66.48
2023-05-21T09:38:00,mfh,64.92
2023-05-21T09:39:00,mfh,65.23
2023-05-21T09:40:00,mfh,64.41
2023-05-21T09:41:00,mfh,64.43
2023-05-21T09:42:00,mfh,64.63
2023-05-21T09:43:00,mfh,63.82
2023-05-21T09:44:00,mfh,64.41
2023-05-21T09:45:00,mfh,64.78
2023-05-21T09:46:00,mfh,65.45
2023-05-21T09:47:00,mfh,65.10
2023-05-21T09:48:00,mfh,65.56
2023-05-21T09:49:00,mfh,65.14
2023-05-21T09:50:00,mfh,65.19
2023-05-21T09:51:00,mfh,65.18
2023-05-21T09:52:00,mfh,65.17
2023-05-21T09:53:00,mfh,65.05
2023-05-21T09:54:00,mfh,64.77
2023-05-21T09:55:00,mfh,63.65
2023-05-21T09:56:00,mfh,63.79
2023-05-21T09:57:00,mfh,64.80
2023-05-21T09:58:00,mfh,64.80
2023-05-21T09:59:00,mfh,64.58
2023-05-21T10:00:00,mfh,64.62
2023-05-21T10:01:00,mfh,64.43
2023-05-21T10:02:00,mfh,64.33
2023-05-21T10:03:00,mfh,64.78
2023-05-21T10:04:00,mfh,65.82
2023-05-21T10:05:00,mfh,64.09
2023-05-21T10:06:00,mfh,64.27
2023-05-21T10:07:00,mfh,63.78
2023-05-21T10:08:00,mfh,64.28
2023-05-21T10:09:00,mfh,64.25
2023-05-21T10:10:00,mfh,64.90
2023-05-21T10:11:00,mfh,64.19
2023-05-21T10:12:00,mfh,65.11
2023-05-21T10:13:00,mfh,66.08
2023-05-21T10:14:00,mfh,65.78
2023-05-21T10:15:00,mfh,65.37
2023-05-21T10:16:00,mfh,66.36
2023-05-21T10:17:00,mfh,65.30
2023-05-21T10:18:00,mfh,66.10
2023-05-21T10:19:00,mfh,65.25
2023-05-21T10:20:00,mfh,65.76
2023-05-21T10:21:00,mfh,65.84
2023-05-21T10:22:00,mfh,66.56
2023-05-21T10:23:00,mfh,65.72
2023-05-21T10:24:00,mfh,65.72
2023-05-21T10:25:00,mfh,66.46
2023-05-21T10:26:00,mfh,65.84
2023-05-21T10:27:00,mfh,65.85
2023-05-21T10:28:00,mfh,65.40
2023-05-21T10:29:00,mfh,65.44
2023-05-21T10:30:00,mfh,66.33
2023-05-21T10:31:00,mfh,66.20
2023-05-21T10:32:00,mfh,66.60
2023-05-21T10:33:00,mfh,66.72
2023-05-21T10:34:00,mfh,66.63
2023-05-21T10:35:00,mfh,67.12
2023-05-21T10:36:00,mfh,66.65
2023-05-21T10:37:00,mfh,67.12
2023-05-21T10:38:00,mfh,67.05
2023-05-21T10:39:00,mfh,66.85
2023-05-21T10:40:00,mfh,66.26
2023-05-21T10:41:00,mfh,66.49
2023-05-21T10:42:00,mfh,67.49
2023-05-21T10:43:00,mfh,66.65
2023-05-21T10:44:00,mfh,66.34
2023-05-21T10:45:00,mfh,66.44
2023-05-21T10:46:00,mfh,66.33
2023-05-21T10:47:00,mfh,66.96
2023-05-21T10:48:00,mfh,66.63
2023-05-21T10:49:00,mfh,65.97
2023-05-21T10:50:00,mfh,66.28
2023-05-21T10:51:00,mfh,66.01
2023-05-21T10:52:00,mfh,65.87
2023-05-21T10:53:00,mfh,64.88
2023-05-21T10:54:00,mfh,64.69
2023-05-21T10:55:00,mfh,64.90
2023-05-21T10:56:00,mfh,65.05
2023-05-21T10:57:00,mfh,66.23
2023-05-21T10:58:00,mfh,65.82
2023-05-21T10:59:00,mfh,65.38
2023-05-21T11:00:00,mfh,65.58
2023-05-21T11:01:00,mfh,66.82
2023-05-21T11:02:00,mfh,66.77
2023-05-21T11:03:00,mfh,67.08
2023-05-21T11:04:00,mfh,66.85
2023-05-21T11:05:00,mfh,66.51
2023-05-21T11:06:00,mfh,66.51
2023-05-21T11:07:00,mfh,66.85
2023-05-21T11:08:00,mfh,66.34
2023-05-21T11:09:00,mfh,65.14
2023-05-21T11:10:00,mfh,66.80
2023-05-21T11:11:00,mfh,66.21
2023-05-21T11:12:00,mfh,67.20
2023-05-21T11:13:00,mfh,66.05
2023-05-21T11:14:00,mfh,66.75
2023-05-21T11:15:00,mfh,66.76
2023-05-21T11:16:00,mfh,66.52
2023-05-21T11:17:00,mfh,66.87
2023-05-21T11:18:00,mfh,66.54
2023-05-21T11:19:00,mfh,66.07
2023-05-21T11:20:00,mfh,65.62
2023-05-21T11:21:00,mfh,65.46
2023-05-21T11:22:00,mfh,64.85
2023-05-21T11:23:00,mfh,64.85
2023-05-21T11:24:00,mfh,64.79
2023-05-21T11:25:00,mfh,65.62
2023-05-21T11:26:00,mfh,66.17
2023-05-21T11:27:00,mfh,66.12
2023-05-21T11:28:00,mfh,66.09
2023-05-21T11:29:00,mfh,66.26
2023-05-21T11:30:00,mfh,66.69
2023-05-21T11:31:00,mfh,66.94
2023-05-21T11:32:00,mfh,67.38
2023-05-21T11:33:00,mfh,67.65
2023-05-21T11:34:00,mfh,66.58
2023-05-21T11:35:00,mfh,66.03
2023-05-21T11:36:00,mfh,66.39
2023-05-21T11:37:00,mfh,66.33
2023-05-21T11:38:00,mfh,66.62
2023-05-21T11:39:00,mfh,66.74
2023-05-21T11:40:00,mfh,66.58
2023-05-21T11:41:00,mfh,67.29
2023-05-21T11:42:00,mfh,66.25
2023-05-21T11:43:00,mfh,66.54
2023-05-21T11:44:00,mfh,65.73
2023-05-21T11:45:00,mfh,65.33
2023-05-21T11:46:00,mfh,64.74
2023-05-21T11:47:00,mfh,65.51
2023-05-21T11:48:00,mfh,65.41
2023-05-21T11:49:00,mfh,66.31
2023-05-21T11:50:00,mfh,65.62
2023-05-21T11:51:00,mfh,65.80
2023-05-21T11:52:00,mfh,65.94
2023-05-21T11:53:00,mfh,66.06
2023-05-21T11:54:00,mfh,65.14
2023-05-21T11:55:00,mfh,65.30
2023-05-21T11:56:00,mfh,65.29
2023-05-21T11:57:00,mfh,67.27
2023-05-21T11:58:00,mfh,67.39
2023-05-21T11:59:00,mfh,67.55
2023-05-21T12:00:00,mfh,67.94
2023-05-21T12:01:00,mfh,68.20
2023-05-21T12:02:00,mfh,67.80
2023-05-21T12:03:00,mfh,67.78
2023-05-21T12:04:00,mfh,66.08
2023-05-21T12:05:00,mfh,65.97
2023-05-21T12:06:00,mfh,65.48
2023-05-21T12:07:00,mfh,65.77
2023-05-21T12:08:00,mfh,65.32
2023-05-21T12:09:00,mfh,67.00
2023-05-21T12:10:00,mfh,66.17
2023-05-21T12:11:00,mfh,66.52
2023-05-21T12:12:00,mfh,66.27
2023-05-21T12:13:00,mfh,66.26
2023-05-21T12:14:00,mfh,66.28
2023-05-21T12:15:00,mfh,66.61
2023-05-21T12:16:00,mfh,65.30
2023-05-21T12:17:00,mfh,66.00
2023-05-21T12:18:00,mfh,65.58
2023-05-21T12:19:00,mfh,66.02
2023-05-21T12:20:00,mfh,65.81
2023-05-21T12:21:00,mfh,65.58
2023-05-21T12:22:00,mfh,66.05
2023-05-21T12:23:00,mfh,66.86
2023-05-21T12:24:00,mfh,65.58
2023-05-21T12:25:00,mfh,65.51
2023-05-21T12:26:00,mfh,64.75
2023-05-21T12:27:00,mfh,64.00
2023-05-21T12:28:00,mfh,64.25
2023-05-21T12:29:00,mfh,64.13
2023-05-21T12:30:00,mfh,64.29
2023-05-21T12:31:00,mfh,65.16
2023-05-21T12:32:00,mfh,64.73
2023-05-21T12:33:00,mfh,64.96
2023-05-21T12:34:00,mfh,64.98
2023-05-21T12:35:00,mfh,65.06
2023-05-21T12:36:00,mfh,64.56
2023-05-21T12:37:00,mfh,64.64
2023-05-21T12:38:00,mfh,63.84
2023-05-21T12:39:00,mfh,63.58
2023-05-21T12:40:00,mfh,63.63
2023-05-21T12:41:00,mfh,64.52
2023-05-21T12:42:00,mfh,64.92
2023-05-21T12:43:00,mfh,65.05
2023-05-21T12:44:00,mfh,66.25
2023-05-21T12:45:00,mfh,66.03
2023-05-21T12:46:00,mfh,66.27
2023-05-21T12:47:00,mfh,66.52
2023-05-21T12:48:00,mfh,66.66
2023-05-21T12:49:00,mfh,67.34
2023-05-21T12:50:00,mfh,67.39
2023-05-21T12:51:00,mfh,66.99
2023-05-21T12:52:00,mfh,65.64
2023-05-21T12:53:00,mfh,66.73
2023-05-21T12:54:00,mfh,67.07
2023-05-21T12:55:00,mfh,67.14
2023-05-21T12:56:00,mfh,67.58
2023-05-21T12:57:00,mfh,66.63
2023-05-21T12:58:00,mfh,67.52
2023-05-21T12:59:00,mfh,67.34
2023-05-21T13:00:00,mfh,67.26
2023-05-21T13:01:00,mfh,67.16
2023-05-21T13:02:00,mfh,67.53
2023-05-21T13:03:00,mfh,66.40
2023-05-21T13:04:00,mfh,67.37
2023-05-21T13:05:00,mfh,67.61
2023-05-21T13:06:00,mfh,66.34
2023-05-21T13:07:00,mfh,67.37
2023-05-21T13:08:00,mfh,66.91
2023-05-21T13:09:00,mfh,67.29
2023-05-21T13:10:00,mfh,67.02
2023-05-21T13:11:00,mfh,67.15
2023-05-21T13:12:00,mfh,66.91
2023-05-21T13:13:00,mfh,66.66
2023-05-21T13:14:00,mfh,65.22
2023-05-21T13:15:00,mfh,65.35
2023-05-21T13:16:00,mfh,64.71
2023-05-21T13:17:00,mfh,64.08
2023-05-21T13:18:00,mfh,64.94